Theta_e
283 283 282 282 282 282 282 282 282 281 281 281 281 281 280 280 281 281 281 281 281 280 280 280 281 281 281 281 281 280 281 280 280 281 280 281 281 281 281 281 282 282
283 283 283 283 282 282 282 282 282 281 281 281 281 281 281 281 280 281 280 280 280 280 280 280 280 280 280 280 280 280 280 280 279 281 280 280 280 280 280 280 281 281
282 282 282 281 281 281 281 281 281 281 281 281 281 281 281 281 280 280 280 280 279 279 280 280 279 279 279 279 280 279 279 279 279 280 279 279 279 279 279 280 280 280
281 281 281 281 281 281 281 281 280 280 280 280 280 280 280 280 280 279 279 279 279 279 279 279 279 279 279 279 279 279 279 279 279 279 279 279 279 279 279 279 279 279
281 281 281 281 281 281 281 280 280 280 280 280 280 280 280 279 279 279 279 278 278 278 278 278 278 278 278 278 278 278 278 278 278 278 278 278 278 278 278 278 278 278
280 281 281 280 280 280 280 280 280 280 280 280 279 279 279 279 279 278 278 278 278 278 278 278 278 278 278 278 278 277 277 277 277 277 277 277 277 278 278 278 277 277
279 279 279 280 280 280 279 279 279 279 279 279 279 279 279 279 278 278 278 278 277 277 277 277 277 277 277 277 277 276 277 277 277 277 276 276 277 276 277 277 277 276
279 279 278 278 278 278 279 279 279 279 279 279 279 279 278 278 278 278 278 277 277 276 276 276 276 276 276 276 276 276 276 276 276 276 276 275 276 275 276 276 276 276
278 278 278 278 278 278 278 278 278 278 278 278 278 278 278 277 277 277 276 276 275 275 275 275 275 275 275 275 275 275 275 275 275 275 275 275 275 275 275 276 276 276
278 278 278 278 278 278 277 277 277 277 277 277 277 277 276 276 276 275 275 275 274 274 274 274 274 274 274 274 274 274 274 274 274 274 274 274 274 275 275 275 275 275
278 278 278 277 277 277 277 277 277 276 276 276 275 275 275 274 274 274 273 273 273 273 273 273 273 273 273 273 273 274 273 273 273 274 274 274 274 275 275 275 274 274
277 277 277 277 277 276 276 276 276 275 274 274 274 273 273 273 272 272 272 272 272 272 272 272 272 272 272 272 272 272 272 273 273 274 274 274 274 274 274 274 274 274
277 277 277 277 276 276 276 275 274 273 273 272 273 272 271 271 271 271 271 271 271 271 271 271 271 271 271 271 271 271 272 273 273 273 273 274 274 274 274 274 274 273
277 277 276 276 276 275 274 273 272 272 271 271 271 270 270 270 270 269 270 270 270 269 270 270 269 270 270 270 270 271 273 273 273 273 273 273 273 273 273 273 273 273
276 276 275 275 274 273 272 271 271 270 270 270 269 269 269 269 269 269 268 268 268 268 268 268 268 268 269 269 271 273 274 273 273 273 273 273 273 273 273 273 273 273
275 275 274 273 272 271 270 269 269 269 268 268 268 267 267 267 267 268 267 267 267 267 267 267 267 268 269 272 275 274 274 274 273 273 273 273 272 272 272 272 272 272
274 273 272 271 270 269 268 268 268 267 267 266 266 266 266 266 266 266 266 266 266 266 265 266 266 267 270 273 274 275 274 274 273 273 273 272 272 271 271 271 272 272
272 271 270 269 268 267 267 266 266 265 265 265 264 264 265 265 265 265 265 265 265 265 265 265 265 267 271 272 274 275 275 274 274 273 272 272 271 271 271 270 270 270
270 269 268 267 266 265 265 264 264 264 263 263 263 264 264 264 264 264 264 264 264 263 263 264 264 267 270 272 273 275 275 275 273 273 272 271 271 270 270 269 269 269
268 267 266 266 265 264 264 263 263 263 263 263 263 263 263 263 263 263 263 263 263 263 263 263 263 266 270 272 273 274 275 275 273 272 271 270 269 269 269 269 268 268
267 266 265 264 264 263 263 263 262 262 262 262 262 262 262 262 262 261 261 261 261 262 262 262 262 267 270 271 272 273 275 275 272 270 269 269 269 269 269 269 269 269
266 265 264 263 263 262 261 263 262 262 261 262 261 261 261 262 261 261 261 260 261 261 260 261 262 267 269 270 272 273 274 272 270 269 268 268 268 269 269 269 269 269
266 264 263 262 262 261 260 261 262 261 260 261 260 261 261 260 260 260 260 260 260 260 260 260 261 264 268 270 271 273 272 270 270 269 268 268 268 269 269 269 269 269
265 263 262 262 260 260 260 262 261 260 260 260 260 259 259 259 259 259 259 259 259 259 259 259 260 263 267 269 271 272 272 270 269 268 268 268 268 269 269 269 270 271
263 262 262 260 260 261 259 259 259 259 259 259 258 258 258 258 258 258 258 258 258 259 261 261 260 262 266 268 270 271 271 270 270 269 268 268 268 268 269 270 270 271
262 261 260 259 260 259 258 259 259 257 257 258 257 257 257 258 257 257 257 257 258 258 259 260 259 260 262 268 269 271 272 270 270 269 268 268 269 269 268 269 270 270
Wind_Speed
7 6 7 6 6 5 6 6 6 7 6 5 6 5 5 3 4 5 5 5 6 6 6 6 6 6 5 5 5 4 5 5 5 5 6 5 5 6 6 7 7 6
7 7 6 6 6 5 5 5 5 6 6 5 5 4 4 4 4 4 5 6 5 6 5 6 6 6 6 5 5 5 5 5 5 3 5 6 5 5 6 6 6 6
7 7 7 8 7 7 7 5 6 5 6 5 4 4 3 3 4 4 4 5 5 5 5 5 5 5 5 5 4 4 5 5 6 5 5 6 5 5 5 5 5 6
6 7 8 8 7 8 6 6 5 5 4 4 4 3 3 3 3 4 4 4 5 4 4 4 5 4 4 4 4 4 4 5 5 5 5 4 4 4 5 4 5 5
8 7 7 7 7 7 6 6 6 4 4 4 4 3 3 4 4 5 5 5 5 5 5 6 5 5 5 5 5 5 5 5 5 5 5 5 4 5 5 5 6 6
6 7 7 7 6 6 5 6 5 4 4 5 5 4 5 5 5 5 5 6 5 5 5 5 6 6 6 6 6 5 6 6 6 6 6 6 6 4 4 5 6 7
8 7 8 6 7 6 6 5 5 5 5 4 3 5 4 5 5 5 5 5 6 6 6 7 7 7 6 6 6 6 6 6 6 6 7 7 7 7 6 6 7 8
7 6 7 7 7 6 7 5 5 4 4 5 6 4 4 4 4 3 3 4 4 5 5 5 5 5 6 5 6 6 6 5 6 7 7 7 7 8 8 7 8 9
7 7 6 7 8 6 7 6 5 5 4 4 3 3 3 3 3 3 3 3 3 4 4 4 5 5 5 5 6 6 7 6 6 7 7 8 8 8 8 8 9 9
7 6 7 7 8 6 6 5 4 3 3 3 3 2 3 3 2 2 2 3 3 3 4 4 4 5 5 5 6 6 6 7 7 7 7 7 8 9 9 9 9 10
7 7 8 7 6 5 5 4 4 3 3 3 2 2 2 2 2 2 2 3 3 4 4 4 5 5 5 5 5 5 6 7 7 7 7 8 8 8 8 9 9 9
7 7 7 7 6 5 5 4 3 3 3 2 2 2 2 2 2 3 3 3 3 3 4 4 4 5 5 6 6 6 6 7 7 7 8 8 8 8 8 8 9 10
7 7 7 6 5 5 4 4 3 3 2 2 2 2 2 1 2 2 2 3 3 3 4 4 5 5 5 6 6 6 7 7 7 8 8 7 7 8 8 8 9 9
7 7 7 6 5 5 4 4 3 2 2 2 2 2 2 2 2 3 2 3 3 3 4 4 4 5 5 5 6 6 7 7 7 9 9 8 9 8 8 8 8 9
7 6 5 6 6 5 4 3 2 2 1 1 2 1 2 2 3 3 3 3 3 3 4 4 4 4 4 5 7 8 9 9 9 9 10 11 10 9 9 8 8 8
7 7 6 6 5 5 4 2 1 1 0 1 1 1 2 2 2 2 2 3 3 3 3 3 4 3 7 12 11 9 10 8 9 9 9 10 10 10 10 10 10 10
7 7 7 6 5 4 2 1 1 1 1 1 0 1 1 2 2 2 3 3 3 3 4 3 4 5 12 13 13 14 10 9 9 10 10 10 10 10 11 11 10 11
7 7 7 6 5 3 2 2 1 2 2 1 0 1 1 1 2 2 2 2 3 3 3 4 5 9 13 13 13 13 12 10 9 9 9 9 9 10 10 10 11 11
7 6 5 5 3 3 2 3 3 3 2 1 0 1 1 1 1 2 2 2 3 4 4 5 5 10 13 14 13 14 14 12 8 8 9 9 9 10 10 10 10 11
8 6 5 5 4 4 3 3 3 3 2 1 0 1 1 1 1 2 2 3 4 4 5 5 7 10 14 14 14 14 14 13 9 9 9 9 10 10 9 10 11 11
7 5 5 5 5 4 4 3 3 3 2 1 0 1 2 2 2 3 3 3 4 4 5 5 6 13 14 15 14 15 15 13 7 8 8 8 9 9 10 10 11 11
6 6 5 5 5 4 4 3 3 2 1 0 0 1 1 1 2 2 3 4 4 5 5 6 6 13 14 14 15 15 16 9 7 8 8 9 9 10 10 10 10 11
8 6 6 6 5 5 4 4 3 1 0 0 0 2 2 2 2 3 3 4 4 4 6 6 7 10 14 15 16 17 13 8 8 7 8 10 11 11 10 10 10 11
6 6 7 6 5 5 5 3 2 0 1 1 1 1 3 2 3 3 2 3 4 5 4 7 6 10 15 16 16 16 14 10 8 9 8 9 11 10 10 11 13 20
6 6 6 6 6 5 5 4 2 1 1 1 1 1 3 2 3 3 3 2 3 4 8 9 8 9 14 16 17 16 12 9 8 7 8 11 10 12 12 12 13 13
6 6 6 6 6 5 4 3 2 1 2 1 1 1 2 2 3 3 5 3 2 4 5 6 8 7 10 17 16 16 16 10 9 8 10 12 11 10 10 10 10 10
Wind_Direction
96 94 99 94 92 93 97 96 88 88 80 72 71 62 58 54 38 46 49 45 44 46 38 37 36 37 36 34 32 30 34 31 25 27 14 16 14 11 4 360 356 354
102 103 102 101 96 90 82 81 87 86 84 76 75 78 70 60 43 48 48 45 42 43 36 34 32 32 26 26 20 22 23 24 24 16 12 13 8 1 358 350 346 337
106 105 104 102 105 99 93 84 84 80 84 83 83 75 77 72 60 55 57 54 45 42 36 30 30 29 23 21 14 15 18 11 14 12 9 5 356 358 346 340 343 342
102 105 108 106 105 105 100 95 85 87 94 94 82 85 86 77 73 62 56 52 45 40 36 30 29 21 22 11 9 14 13 13 359 354 355 354 354 348 339 336 331 328
126 120 115 107 101 102 99 97 100 101 101 106 104 79 70 56 48 45 40 32 34 25 22 22 17 14 10 8 7 7 5 2 358 358 352 347 345 344 331 333 326 322
118 114 108 107 110 113 102 96 99 95 88 76 63 53 50 45 41 36 28 24 20 18 12 14 10 6 6 4 0 7 356 353 350 349 345 341 335 336 330 326 320 319
128 122 113 109 104 97 95 91 82 69 65 73 70 49 40 38 35 28 20 16 9 9 9 1 1 356 356 354 352 348 346 339 337 340 336 331 329 325 327 324 321 315
122 117 104 94 93 89 79 77 66 60 55 50 52 37 45 35 34 22 15 8 5 359 358 353 349 347 343 345 341 336 334 334 329 331 324 320 321 317 323 323 317 313
113 103 105 101 87 74 68 59 58 58 50 68 64 47 34 44 25 24 11 3 2 355 352 349 346 343 340 337 330 329 326 324 324 322 319 317 317 314 316 315 313 310
116 116 95 84 76 71 74 69 73 74 62 64 62 48 51 30 35 23 16 5 3 359 350 345 345 339 336 330 324 323 318 316 316 313 308 306 305 307 312 312 310 310
113 103 96 92 94 93 95 89 80 76 63 68 56 51 49 53 27 20 21 10 7 359 351 353 347 338 331 325 320 316 312 311 310 308 305 304 303 303 305 306 307 305
119 111 111 112 112 106 103 96 80 69 58 36 61 35 55 34 33 15 15 8 357 360 352 347 340 331 323 318 316 317 312 307 306 305 305 304 303 303 304 305 302 302
135 128 121 118 116 112 104 89 73 63 46 40 34 48 51 25 21 28 2 13 354 7 351 348 336 325 319 317 315 311 308 308 307 305 303 302 299 300 300 298 298 299
135 127 116 116 113 107 95 85 72 53 41 28 52 34 40 27 11 7 360 8 4 358 348 342 330 319 314 311 306 305 308 308 309 310 309 306 303 301 301 299 299 297
129 117 115 111 108 97 86 74 67 48 23 35 40 27 23 19 5 356 2 4 357 350 344 334 323 311 314 309 314 318 321 317 315 312 311 311 312 309 309 305 301 299
126 118 113 107 99 96 91 83 86 37 6 37 7 31 12 9 358 357 10 351 347 338 339 328 312 306 301 309 316 317 317 313 310 308 309 309 309 310 309 309 307 304
124 121 111 107 107 104 112 122 152 214 181 203 296 27 2 5 351 0 357 341 340 331 328 323 307 296 307 315 316 316 313 308 305 305 305 304 302 303 305 308 306 305
127 122 117 116 119 129 144 155 196 201 202 193 216 23 353 355 343 358 333 335 324 326 318 313 301 302 310 312 312 310 310 306 303 301 301 298 298 298 301 303 304 304
133 133 130 130 136 142 154 183 189 199 193 188 96 318 298 326 331 332 320 326 322 319 318 308 294 302 307 310 310 311 309 307 300 297 297 297 297 298 299 300 301 301
138 141 141 141 140 150 172 187 183 196 190 186 124 273 302 298 305 311 321 322 319 314 307 303 296 297 307 310 311 309 308 307 300 301 297 296 296 294 295 295 296 297
143 142 143 144 149 164 179 184 188 188 176 142 128 322 316 315 321 316 308 308 305 305 303 298 289 304 310 311 309 308 308 311 306 302 294 290 290 289 290 291 294 295
150 152 144 148 162 172 177 192 187 181 132 117 14 296 267 287 292 293 298 303 302 301 301 296 293 308 311 309 308 309 311 310 301 295 295 294 290 291 288 289 290 293
149 147 156 163 168 172 181 197 180 179 155 154 340 296 295 288 283 287 291 291 294 296 298 295 294 303 307 308 308 310 312 299 294 293 293 294 290 291 289 286 285 281
152 154 163 169 167 179 186 186 167 161 182 166 273 287 286 276 289 288 273 274 284 292 289 294 290 302 307 308 308 308 307 303 297 286 271 279 292 289 287 281 274 272
151 158 160 164 174 181 179 179 181 182 188 198 224 242 265 276 284 288 277 266 258 274 297 299 292 297 304 304 306 306 308 302 297 284 282 294 295 293 283 277 277 271
156 159 162 163 172 173 178 181 167 164 196 206 243 262 274 288 282 278 287 281 271 274 277 286 288 286 294 301 303 305 307 304 298 294 295 294 286 273 279 277 269 265